Time,TemperatureF,DewpointF,PressureIn,WindDirection,WindDirectionDegrees,WindSpeedMPH,WindSpeedGustMPH,Humidity,HourlyPrecipIn,Conditions,Clouds,dailyrainin,SoftwareType,DateUTC
2013-04-07 00:08:00,35.1,18.8,30.33,SE,135,0.0,0.0,51,0.00,,,0.00,WUHU216HW,2013-04-07 04:08:00,
2013-04-07 00:19:00,35.1,19.3,30.33,SE,135,0.0,0.0,52,0.00,,,0.00,WUHU216HW,2013-04-07 04:19:00,
2013-04-07 00:29:00,34.9,19.4,30.33,South,180,0.0,0.0,53,0.00,,,0.00,WUHU216HW,2013-04-07 04:29:00,
2013-04-07 00:39:00,34.9,19.9,30.33,South,180,0.0,0.0,54,0.00,,,0.00,WUHU216HW,2013-04-07 04:39:00,
2013-04-07 00:49:00,34.7,20.2,30.33,South,180,0.0,0.0,55,0.00,,,0.00,WUHU216HW,2013-04-07 04:49:00,
2013-04-07 00:59:00,34.6,20.4,30.33,SSE,158,0.0,0.4,56,0.00,,,0.00,WUHU216HW,2013-04-07 04:59:00,
2013-04-07 01:09:00,34.4,20.3,30.33,SSE,158,0.0,0.0,56,0.00,,,0.00,WUHU216HW,2013-04-07 05:09:00,
2013-04-07 01:19:00,34.2,20.5,30.33,South,180,0.0,0.0,57,0.00,,,0.00,WUHU216HW,2013-04-07 05:19:00,
2013-04-07 01:29:00,34.4,21.5,30.33,NNW,338,0.0,0.0,59,0.00,,,0.00,WUHU216HW,2013-04-07 05:29:00,
2013-04-07 01:39:00,34.6,22.5,30.33,NW,315,0.0,0.0,61,0.00,,,0.00,WUHU216HW,2013-04-07 05:39:00,
2013-04-07 01:50:00,35.1,24.1,30.33,NW,315,0.0,1.1,64,0.00,,,0.00,WUHU216HW,2013-04-07 05:50:00,
2013-04-07 02:00:00,35.3,23.6,30.33,WSW,248,0.0,0.0,62,0.00,,,0.00,WUHU216HW,2013-04-07 06:00:00,
2013-04-07 02:10:00,35.1,23.4,30.32,NNW,338,0.0,0.2,62,0.00,,,0.00,WUHU216HW,2013-04-07 06:10:00,
2013-04-07 02:20:00,34.9,23.2,30.32,NNW,338,0.0,0.0,62,0.00,,,0.00,WUHU216HW,2013-04-07 06:20:00,
2013-04-07 02:30:00,34.7,24.5,30.31,NW,315,0.0,0.4,66,0.00,,,0.00,WUHU216HW,2013-04-07 06:30:00,
2013-04-07 02:40:00,34.7,23.8,30.31,NNW,338,0.0,0.2,64,0.00,,,0.00,WUHU216HW,2013-04-07 06:40:00,
2013-04-07 02:50:00,34.4,23.4,30.31,NNW,338,0.0,0.0,64,0.00,,,0.00,WUHU216HW,2013-04-07 06:50:00,
2013-04-07 03:00:00,34.2,23.2,30.30,NNW,338,0.0,0.0,64,0.00,,,0.00,WUHU216HW,2013-04-07 07:00:00,
2013-04-07 03:10:00,34.0,23.0,30.30,NNW,338,0.0,0.0,64,0.00,,,0.00,WUHU216HW,2013-04-07 07:10:00,
2013-04-07 03:20:00,33.8,22.9,30.30,NNW,338,0.0,0.0,64,0.00,,,0.00,WUHU216HW,2013-04-07 07:20:00,
2013-04-07 03:30:00,33.5,22.5,30.30,NW,315,0.0,0.0,64,0.00,,,0.00,WUHU216HW,2013-04-07 07:30:00,
2013-04-07 03:41:00,33.5,22.9,30.30,NW,315,0.0,0.0,65,0.00,,,0.00,WUHU216HW,2013-04-07 07:41:00,
2013-04-07 03:51:00,33.5,23.2,30.30,NW,315,0.0,0.0,66,0.00,,,0.00,WUHU216HW,2013-04-07 07:51:00,
2013-04-07 04:01:00,33.7,23.8,30.30,NW,315,0.0,0.0,67,0.00,,,0.00,WUHU216HW,2013-04-07 08:01:00,
2013-04-07 04:11:00,34.2,24.7,30.30,WNW,293,0.0,0.0,68,0.00,,,0.00,WUHU216HW,2013-04-07 08:11:00,
2013-04-07 04:22:00,34.4,24.5,30.30,WNW,293,0.0,0.0,67,0.00,,,0.00,WUHU216HW,2013-04-07 08:22:00,
2013-04-07 04:32:00,34.6,25.0,30.30,SW,225,0.0,0.0,68,0.00,,,0.00,WUHU216HW,2013-04-07 08:32:00,
2013-04-07 04:42:00,34.9,25.7,30.30,WSW,248,0.0,0.0,69,0.00,,,0.00,WUHU216HW,2013-04-07 08:42:00,
2013-04-07 04:52:00,34.9,25.7,30.30,West,270,0.0,0.0,69,0.00,,,0.00,WUHU216HW,2013-04-07 08:52:00,
2013-04-07 05:02:00,35.1,26.9,30.30,WNW,293,0.0,0.4,72,0.00,,,0.00,WUHU216HW,2013-04-07 09:02:00,
2013-04-07 05:12:00,35.3,26.8,30.30,WNW,293,0.0,0.0,71,0.00,,,0.00,WUHU216HW,2013-04-07 09:12:00,
2013-04-07 05:23:00,35.6,27.2,30.30,WNW,293,0.0,0.2,71,0.00,,,0.00,WUHU216HW,2013-04-07 09:23:00,
2013-04-07 05:33:00,35.6,27.2,30.30,WNW,293,0.0,0.0,71,0.00,,,0.00,WUHU216HW,2013-04-07 09:33:00,
2013-04-07 05:43:00,35.8,27.4,30.30,WNW,293,0.0,0.0,71,0.00,,,0.00,WUHU216HW,2013-04-07 09:43:00,
2013-04-07 05:53:00,36.0,27.6,30.30,SW,225,0.2,0.4,71,0.00,,,0.00,WUHU216HW,2013-04-07 09:53:00,
2013-04-07 06:03:00,36.4,27.9,30.31,SW,225,0.4,1.1,71,0.00,,,0.00,WUHU216HW,2013-04-07 10:03:00,
2013-04-07 06:13:00,36.5,28.4,30.31,WSW,248,0.4,1.8,72,0.00,,,0.00,WUHU216HW,2013-04-07 10:13:00,
2013-04-07 06:23:00,36.5,28.1,30.30,SSW,203,0.4,1.1,71,0.00,,,0.00,WUHU216HW,2013-04-07 10:23:00,
2013-04-07 06:33:00,36.7,28.9,30.30,WSW,248,0.0,0.9,73,0.00,,,0.00,WUHU216HW,2013-04-07 10:33:00,
2013-04-07 06:43:00,36.7,29.2,30.30,WSW,248,0.0,0.4,74,0.00,,,0.00,WUHU216HW,2013-04-07 10:43:00,
2013-04-07 06:53:00,36.9,29.1,30.30,WSW,248,0.0,0.9,73,0.00,,,0.00,WUHU216HW,2013-04-07 10:53:00,
2013-04-07 07:04:00,37.1,28.9,30.30,SSW,203,0.0,0.9,72,0.00,,,0.00,WUHU216HW,2013-04-07 11:04:00,
2013-04-07 07:14:00,37.1,29.3,30.30,SSW,203,0.2,0.4,73,0.00,,,0.00,WUHU216HW,2013-04-07 11:14:00,
2013-04-07 07:24:00,37.3,29.7,30.30,SW,225,0.0,1.3,74,0.00,,,0.00,WUHU216HW,2013-04-07 11:24:00,
2013-04-07 07:34:00,37.6,30.1,30.30,West,270,0.0,0.4,74,0.00,,,0.00,WUHU216HW,2013-04-07 11:34:00,
2013-04-07 07:45:00,38.0,30.4,30.30,SW,225,1.1,1.1,74,0.00,,,0.00,WUHU216HW,2013-04-07 11:45:00,
2013-04-07 07:55:00,38.5,30.6,30.30,SSW,203,1.8,1.8,73,0.00,,,0.00,WUHU216HW,2013-04-07 11:55:00,
2013-04-07 08:05:00,38.5,30.2,30.30,SSW,203,0.0,2.0,72,0.00,,,0.00,WUHU216HW,2013-04-07 12:05:00,
2013-04-07 08:15:00,38.9,30.6,30.30,SSE,158,0.2,0.9,72,0.00,,,0.00,WUHU216HW,2013-04-07 12:15:00,
2013-04-07 08:25:00,39.2,31.0,30.30,SSE,158,0.0,1.1,72,0.00,,,0.00,WUHU216HW,2013-04-07 12:25:00,
2013-04-07 08:35:00,39.8,31.8,30.30,WSW,248,2.2,2.2,73,0.00,,,0.00,WUHU216HW,2013-04-07 12:35:00,
2013-04-07 08:45:00,40.1,31.5,30.30,WSW,248,0.0,1.1,71,0.00,,,0.00,WUHU216HW,2013-04-07 12:45:00,
2013-04-07 08:55:00,40.7,32.7,30.30,WNW,293,0.0,2.0,73,0.00,,,0.00,WUHU216HW,2013-04-07 12:55:00,
2013-04-07 09:05:00,41.2,32.6,30.30,WSW,248,0.2,1.1,71,0.00,,,0.00,WUHU216HW,2013-04-07 13:05:00,
2013-04-07 09:15:00,42.5,33.9,30.29,SW,225,0.0,1.8,71,0.00,,,0.00,WUHU216HW,2013-04-07 13:15:00,
2013-04-07 09:25:00,44.3,34.4,30.29,West,270,1.1,1.6,68,0.00,,,0.00,WUHU216HW,2013-04-07 13:25:00,
2013-04-07 09:35:00,46.4,34.5,30.28,West,270,1.3,3.8,63,0.00,,,0.00,WUHU216HW,2013-04-07 13:35:00,
2013-04-07 09:46:00,47.9,35.1,30.28,WSW,248,2.7,3.4,61,0.00,,,0.00,WUHU216HW,2013-04-07 13:46:00,
2013-04-07 09:56:00,49.5,34.4,30.28,WSW,248,1.8,6.3,56,0.00,,,0.00,WUHU216HW,2013-04-07 13:56:00,
2013-04-07 10:06:00,50.0,34.9,30.27,SW,225,1.6,5.8,56,0.00,,,0.00,WUHU216HW,2013-04-07 14:06:00,
2013-04-07 10:16:00,52.0,36.3,30.27,SW,225,3.4,3.4,55,0.00,,,0.00,WUHU216HW,2013-04-07 14:16:00,
2013-04-07 10:27:00,53.3,35.7,30.27,SSE,158,3.1,4.0,51,0.00,,,0.00,WUHU216HW,2013-04-07 14:27:00,
2013-04-07 10:37:00,55.8,37.4,30.26,WSW,248,0.4,5.4,50,0.00,,,0.00,WUHU216HW,2013-04-07 14:37:00,
2013-04-07 10:47:00,56.2,33.8,30.26,WSW,248,2.7,5.6,43,0.00,,,0.00,WUHU216HW,2013-04-07 14:47:00,
2013-04-07 10:57:00,56.7,34.4,30.25,SW,225,4.0,5.6,43,0.00,,,0.00,WUHU216HW,2013-04-07 14:57:00,
2013-04-07 11:07:00,56.9,33.4,30.25,SSW,203,3.6,7.2,41,0.00,,,0.00,WUHU216HW,2013-04-07 15:07:00,
2013-04-07 11:17:00,57.6,34.0,30.25,SW,225,1.8,4.3,41,0.00,,,0.00,WUHU216HW,2013-04-07 15:17:00,
2013-04-07 11:27:00,59.0,34.0,30.24,South,180,2.5,7.4,39,0.00,,,0.00,WUHU216HW,2013-04-07 15:27:00,
2013-04-07 11:37:00,59.6,35.2,30.23,ESE,113,2.7,3.1,40,0.00,,,0.00,WUHU216HW,2013-04-07 15:37:00,
2013-04-07 11:47:00,60.1,34.3,30.22,SSW,203,5.8,7.2,38,0.00,,,0.00,WUHU216HW,2013-04-07 15:47:00,
2013-04-07 11:57:00,61.2,33.9,30.22,SW,225,2.7,3.8,36,0.00,,,0.00,WUHU216HW,2013-04-07 15:57:00,
2013-04-07 12:07:00,61.4,32.5,30.21,WSW,248,4.5,4.5,34,0.00,,,0.00,WUHU216HW,2013-04-07 16:07:00,
2013-04-07 12:17:00,61.2,35.3,30.20,ESE,113,3.4,5.1,38,0.00,,,0.00,WUHU216HW,2013-04-07 16:17:00,
2013-04-07 12:27:00,62.5,32.8,30.19,South,180,3.4,5.8,33,0.00,,,0.00,WUHU216HW,2013-04-07 16:27:00,
2013-04-07 12:37:00,62.5,32.8,30.18,WSW,248,1.1,5.6,33,0.00,,,0.00,WUHU216HW,2013-04-07 16:37:00,
2013-04-07 12:47:00,63.5,33.0,30.17,WSW,248,4.5,5.4,32,0.00,,,0.00,WUHU216HW,2013-04-07 16:47:00,
2013-04-07 12:57:00,63.4,33.6,30.17,South,180,3.4,5.1,33,0.00,,,0.00,WUHU216HW,2013-04-07 16:57:00,
2013-04-07 13:07:00,63.9,34.8,30.16,West,270,4.3,4.5,34,0.00,,,0.00,WUHU216HW,2013-04-07 17:07:00,
2013-04-07 13:17:00,63.4,33.6,30.16,SW,225,7.6,7.6,33,0.00,,,0.00,WUHU216HW,2013-04-07 17:17:00,
2013-04-07 13:27:00,64.4,34.6,30.16,SE,135,3.8,5.4,33,0.00,,,0.00,WUHU216HW,2013-04-07 17:27:00,
2013-04-07 13:37:00,64.4,34.6,30.15,SSE,158,4.5,7.2,33,0.00,,,0.00,WUHU216HW,2013-04-07 17:37:00,
2013-04-07 13:47:00,64.3,34.4,30.14,SSW,203,7.4,7.4,33,0.00,,,0.00,WUHU216HW,2013-04-07 17:47:00,
2013-04-07 13:57:00,64.1,33.5,30.14,WSW,248,4.0,6.9,32,0.00,,,0.00,WUHU216HW,2013-04-07 17:57:00,
2013-04-07 14:07:00,63.5,34.5,30.13,WSW,248,3.4,5.1,34,0.00,,,0.00,WUHU216HW,2013-04-07 18:07:00,
2013-04-07 14:17:00,63.7,34.7,30.13,SSW,203,3.4,6.5,34,0.00,,,0.00,WUHU216HW,2013-04-07 18:17:00,
2013-04-07 14:27:00,63.5,35.9,30.12,West,270,4.5,5.8,36,0.00,,,0.00,WUHU216HW,2013-04-07 18:27:00,
2013-04-07 14:37:00,63.7,36.8,30.12,WSW,248,1.8,5.1,37,0.00,,,0.00,WUHU216HW,2013-04-07 18:37:00,
2013-04-07 14:47:00,63.7,36.8,30.11,South,180,3.4,4.7,37,0.00,,,0.00,WUHU216HW,2013-04-07 18:47:00,
2013-04-07 14:57:00,64.1,37.1,30.10,SSE,158,4.0,6.3,37,0.00,,,0.00,WUHU216HW,2013-04-07 18:57:00,
2013-04-07 15:07:00,63.9,37.7,30.09,SSE,158,3.6,6.5,38,0.00,,,0.00,WUHU216HW,2013-04-07 19:07:00,
2013-04-07 15:17:00,63.7,38.3,30.09,South,180,5.6,7.4,39,0.00,,,0.00,WUHU216HW,2013-04-07 19:17:00,
2013-04-07 15:27:00,63.4,38.6,30.08,SE,135,3.1,6.9,40,0.00,,,0.00,WUHU216HW,2013-04-07 19:27:00,
2013-04-07 15:37:00,63.9,39.2,30.07,South,180,4.3,4.9,40,0.00,,,0.00,WUHU216HW,2013-04-07 19:37:00,
2013-04-07 15:48:00,64.3,39.4,30.06,South,180,4.0,4.0,40,0.00,,,0.00,WUHU216HW,2013-04-07 19:48:00,
2013-04-07 15:58:00,64.4,40.1,30.05,SSW,203,1.6,5.6,41,0.00,,,0.00,WUHU216HW,2013-04-07 19:58:00,
2013-04-07 16:08:00,64.3,40.1,30.06,South,180,3.8,8.3,41,0.00,,,0.00,WUHU216HW,2013-04-07 20:08:00,
2013-04-07 16:18:00,64.4,40.8,30.06,SSE,158,0.9,3.8,42,0.00,,,0.00,WUHU216HW,2013-04-07 20:18:00,
2013-04-07 16:28:00,65.0,41.2,30.06,WSW,248,4.7,4.7,42,0.00,,,0.00,WUHU216HW,2013-04-07 20:28:00,
2013-04-07 16:38:00,64.3,41.1,30.06,SE,135,5.4,6.9,43,0.00,,,0.00,WUHU216HW,2013-04-07 20:38:00,
2013-04-07 16:48:00,64.1,41.1,30.05,WSW,248,4.9,6.5,43,0.00,,,0.00,WUHU216HW,2013-04-07 20:48:00,
2013-04-07 16:58:00,63.7,41.2,30.04,SW,225,2.7,5.4,44,0.00,,,0.00,WUHU216HW,2013-04-07 20:58:00,
2013-04-07 17:08:00,63.7,41.2,30.03,SSW,203,2.7,6.3,44,0.00,,,0.00,WUHU216HW,2013-04-07 21:08:00,
2013-04-07 17:18:00,62.3,40.5,30.04,SW,225,2.9,5.6,45,0.00,,,0.00,WUHU216HW,2013-04-07 21:18:00,
2013-04-07 17:28:00,61.2,40.1,30.04,West,270,1.1,5.4,46,0.00,,,0.00,WUHU216HW,2013-04-07 21:28:00,
2013-04-07 17:38:00,60.8,40.4,30.03,WSW,248,5.4,5.8,47,0.00,,,0.00,WUHU216HW,2013-04-07 21:38:00,
2013-04-07 17:48:00,60.7,40.2,30.04,SSW,203,2.2,3.4,47,0.00,,,0.00,WUHU216HW,2013-04-07 21:48:00,
2013-04-07 17:58:00,60.3,40.5,30.04,SSW,203,3.1,4.3,48,0.00,,,0.00,WUHU216HW,2013-04-07 21:58:00,
2013-04-07 18:08:00,60.1,40.9,30.04,SSW,203,2.5,6.3,49,0.00,,,0.00,WUHU216HW,2013-04-07 22:08:00,
2013-04-07 18:18:00,60.1,40.3,30.04,SSW,203,1.3,4.5,48,0.00,,,0.00,WUHU216HW,2013-04-07 22:18:00,
2013-04-07 18:28:00,59.9,41.3,30.04,SW,225,2.0,2.0,50,0.00,,,0.00,WUHU216HW,2013-04-07 22:28:00,
2013-04-07 18:38:00,59.8,40.6,30.04,WSW,248,1.3,1.8,49,0.00,,,0.00,WUHU216HW,2013-04-07 22:38:00,
2013-04-07 18:48:00,59.8,41.1,30.04,North,0,0.7,3.4,50,0.00,,,0.00,WUHU216HW,2013-04-07 22:48:00,
2013-04-07 18:58:00,59.8,41.1,30.04,SSW,203,2.5,6.0,50,0.00,,,0.00,WUHU216HW,2013-04-07 22:58:00,
2013-04-07 19:09:00,59.4,40.9,30.04,West,270,0.4,4.7,50,0.00,,,0.00,WUHU216HW,2013-04-07 23:09:00,
2013-04-07 19:19:00,59.0,41.0,30.05,SSW,203,0.2,3.1,51,0.00,,,0.00,WUHU216HW,2013-04-07 23:19:00,
2013-04-07 19:29:00,58.7,40.7,30.05,SSW,203,0.2,1.3,51,0.00,,,0.00,WUHU216HW,2013-04-07 23:29:00,
2013-04-07 19:39:00,58.3,40.8,30.06,SSW,203,1.6,3.1,52,0.00,,,0.00,WUHU216HW,2013-04-07 23:39:00,
2013-04-07 19:49:00,58.0,41.0,30.06,West,270,0.9,3.1,53,0.00,,,0.00,WUHU216HW,2013-04-07 23:49:00,
2013-04-07 19:59:00,57.8,40.8,30.06,SW,225,1.1,2.9,53,0.00,,,0.00,WUHU216HW,2013-04-07 23:59:00,
2013-04-07 20:09:00,57.4,41.0,30.06,SW,225,0.7,4.0,54,0.00,,,0.00,WUHU216HW,2013-04-08 00:09:00,
2013-04-07 20:19:00,56.9,40.4,30.06,NE,45,1.1,3.1,54,0.00,,,0.00,WUHU216HW,2013-04-08 00:19:00,
2013-04-07 20:29:00,56.7,40.2,30.06,WNW,293,0.4,2.2,54,0.00,,,0.00,WUHU216HW,2013-04-08 00:29:00,
2013-04-07 20:39:00,56.5,40.1,30.06,WSW,248,0.4,2.2,54,0.00,,,0.00,WUHU216HW,2013-04-08 00:39:00,
2013-04-07 20:49:00,56.2,39.7,30.06,WSW,248,0.0,2.2,54,0.00,,,0.00,WUHU216HW,2013-04-08 00:49:00,
2013-04-07 20:59:00,55.8,39.3,30.06,NNE,23,3.1,3.1,54,0.00,,,0.00,WUHU216HW,2013-04-08 00:59:00,
2013-04-07 21:09:00,55.3,39.7,30.07,SW,225,0.2,2.7,56,0.00,,,0.00,WUHU216HW,2013-04-08 01:09:00,
2013-04-07 21:19:00,54.9,39.0,30.07,South,180,0.0,2.0,55,0.00,,,0.00,WUHU216HW,2013-04-08 01:19:00,
2013-04-07 21:29:00,54.7,39.2,30.07,SSW,203,0.2,2.7,56,0.00,,,0.00,WUHU216HW,2013-04-08 01:29:00,
2013-04-07 21:39:00,54.4,38.9,30.07,North,0,0.7,2.0,56,0.00,,,0.00,WUHU216HW,2013-04-08 01:39:00,
2013-04-07 21:49:00,54.0,39.1,30.07,SE,135,0.9,0.9,57,0.00,,,0.00,WUHU216HW,2013-04-08 01:49:00,
2013-04-07 21:59:00,53.6,39.3,30.08,South,180,0.0,1.8,58,0.00,,,0.00,WUHU216HW,2013-04-08 01:59:00,
2013-04-07 22:09:00,53.1,39.6,30.08,SSW,203,0.4,1.6,60,0.00,,,0.00,WUHU216HW,2013-04-08 02:09:00,
2013-04-07 22:19:00,52.9,39.8,30.08,South,180,0.7,0.9,61,0.00,,,0.00,WUHU216HW,2013-04-08 02:19:00,
2013-04-07 22:29:00,52.6,39.9,30.08,SSW,203,0.2,1.6,62,0.00,,,0.00,WUHU216HW,2013-04-08 02:29:00,
2013-04-07 22:39:00,52.2,40.0,30.07,WSW,248,0.0,1.6,63,0.00,,,0.00,WUHU216HW,2013-04-08 02:39:00,
2013-04-07 22:50:00,51.8,40.0,30.07,WSW,248,0.4,1.8,64,0.00,,,0.00,WUHU216HW,2013-04-08 02:50:00,
2013-04-07 23:00:00,51.7,40.2,30.06,WSW,248,0.0,1.1,65,0.00,,,0.00,WUHU216HW,2013-04-08 03:00:00,
2013-04-07 23:10:00,51.5,40.9,30.06,WSW,248,0.2,0.9,67,0.00,,,0.00,WUHU216HW,2013-04-08 03:10:00,
2013-04-07 23:20:00,51.1,40.5,30.06,NNW,338,0.4,0.4,67,0.00,,,0.00,WUHU216HW,2013-04-08 03:20:00,
2013-04-07 23:30:00,50.9,40.8,30.05,SW,225,0.0,1.1,68,0.00,,,0.00,WUHU216HW,2013-04-08 03:30:00,
2013-04-07 23:40:00,51.1,42.1,30.05,NW,315,0.2,1.3,71,0.00,,,0.00,WUHU216HW,2013-04-08 03:40:00,
2013-04-07 23:50:00,51.1,42.5,30.05,WSW,248,0.0,2.5,72,0.00,,,0.00,WUHU216HW,2013-04-08 03:50:00,